Regional Weather Roundup
Issued by NWS Grand Forks, ND

Home | Current Version | Previous Version | Graphics & Text | Print | Product List | Glossary On
Versions: 1 2 3 4 5 6 7 8 9 10 11 12 13 14 15 16 17 18 19 20 21 22 23 24 25 26 27 28 29 30 31 32 33 34 35 36 37 38 39 40 41 42 43 44 45 46 47 48 49 50
000
ASUS43 KFGF 181910
RWRFGF
PRAIRIE TO PINES  WEATHER ROUNDUP
NATIONAL WEATHER SERVICE EASTERN NORTH DAKOTA/GRAND FORKS ND
200 PM CDT FRI APR 18 2014

 **SATELLITE DATA USED TO AUGMENT SKY COVER AT AUTOMATED STATIONS**
 *****  WEATHER ACROSS EASTERN NORTH DAKOTA  *****

CITY           SKY/WX    TMP DP  RH WIND       PRES   REMARKS
GRAND FORKS    CLOUDY    50  25  37 SE24      30.16F
GRAND FRKS AFB CLOUDY    49  24  37 SE22G30   30.15F
GRAND FRKS NWS   N/A     48 N/A N/A SE15        N/A
DEVILS LAKE    CLOUDY    46  27  46 SE26G35   30.05F
FARGO          PTSUNNY   51  30  44 SE21G31   30.15F
WAHPETON ARPT  CLOUDY    46  25  42 SE23G32   30.16F
$$

 ***** WEATHER ACROSS CENTRAL AND WESTERN NORTH DAKOTA  *****

CITY           SKY/WX    TMP DP  RH WIND       PRES   REMARKS
BISMARCK       MOSUNNY   57  33  40 SE24G33   29.88F
MINOT          PTSUNNY   50  26  39 E29G39    29.88F
JAMESTOWN      MOSUNNY   50  27  40 SE33G41   30.00F
MINOT AFB      PTSUNNY   49  29  46 SE30G38   29.88F
GARRISON         N/A     52  28  39 SE28G38   29.83F
WILLISTON      CLOUDY    51  30  44 SE21G31   29.73F
DICKINSON      CLOUDY    54  32  43 SE26G36   29.71F
HETTINGER      CLOUDY    56  35  45 E21G31    29.75F
$$

 *****  OTHER AIRPORT OBSERVATIONS IN OUR AREA  *****

CITY           SKY/WX    TMP DP  RH WIND       PRES   REMARKS
WALHALLA         N/A     46  21  36 SE25G33   30.16F
GRAFTON AIRPOR FAIR      46  25  42 SE21G29   30.17F
VALLEY CITY AR FAIR      48  25  40 SE35G41   30.06F
CANDO          MOCLDY    46  25  42 SE31G40   30.04F
CAVALIER APRT  FAIR      46  27  46 SE16G23   30.17F
GWINNER        CLEAR     48  32  53 SE32G44   30.07F
ROLLA          FAIR      43  23  45 SE35G44   30.03F
 ***** THE ABOVE OBSERVATIONS ARE NON NWS ARE NOT QUALITY
       CONTROLLED AND MAY MIS-REPORT RAIN FOR SNOW...
$$

  *****  WEATHER ACROSS NORTHERN MINNESOTA  *****

CITY           SKY/WX    TMP DP  RH WIND       PRES   REMARKS
FLAG ISLAND    SUNNY     37  18  44 SE6       30.31F
WARROAD        SUNNY     45  23  42 E14G20    30.28F
ROSEAU         SUNNY     48  12  23 SE16      30.25F
HALLOCK        CLOUDY    48  23  37 SE20G26   30.20F
THF RVR FALLS  PTSUNNY   48  23  37 SE20G25   30.21F
BAUDETTE       SUNNY     45  17  32 E10       30.29F
WASKISH        SUNNY     48  18  29 E13G22    30.28F
CROOKSTON      CLOUDY    50  23  34 SE17G24   30.20F
$$
  *****  WEATHER ACROSS CENTRAL AND WEST MINNESOTA  *****

CITY           SKY/WX    TMP DP  RH WIND       PRES   REMARKS
FOSSTON        CLOUDY    48  21  34 SE15      30.22F
BEMIDJI        MOSUNNY   47  18  30 SE16G24   30.25F
PARK RAPIDS    CLOUDY    44  19  36 SE16G25   30.26F
ELBOW LAKE     MOCLDY    43  28  55 E17G29    30.20F
WADENA         MOSUNNY   45  27  49 SE18G25   30.25F
DETROIT LAKES  PTSUNNY   46  27  46 SE24      30.22F
MOORHEAD       NOT AVBL
FERGUS FALLS   PTSUNNY   45  19  36 SE23      30.17F
MORRIS MN      CLOUDY    43  30  61 SE24      30.19F
STAPLES        PTSUNNY   43  25  49 E10G20    30.29F
$$
  *****  WEATHER ELSEWHERE ACROSS MINNESOTA  *****

CITY           SKY/WX    TMP DP  RH WIND       PRES   REMARKS
DULUTH         MOSUNNY   36  18  48 SE12      30.37S
INTRNTL FALLS  SUNNY     43  15  32 SE15      30.34F
ELY            SUNNY     39  16  38 CALM      30.37S
CLOQUET        SUNNY     39  12  33 SE9       30.36F
WHEATON        PTSUNNY   46  34  61 E31G38    30.16F
BRAINERD       PTSUNNY   47  24  40 SE9       30.32F
HIBBING        SUNNY     45  13  27 MISG      30.34F
ALEXANDRIA     MOSUNNY   42  28  57 SE23G30   30.26F
SAINT CLOUD    PTSUNNY   41  27  57 SE12      30.32F
MINNEAPOLIS    PTSUNNY   49  28  44 SE12      30.34F
$$

  *****  WEATHER ACROSS SOUTH DAKOTA  *****

CITY           SKY/WX    TMP DP  RH WIND       PRES   REMARKS
SIOUX FALLS    PTSUNNY   61  34  36 SE26G38   30.08F
BROOKINGS      NOT AVBL
WATERTOWN      MOSUNNY   52  37  56 SE22G36   30.04F
HURON          PTSUNNY   67  38  34 S26G37    29.94F
SISSETON         N/A     46  35  65 SE28G36   30.11F
ABERDEEN       SUNNY     59  37  44 SE26G39   29.97F
MITCHELL       SUNNY     68  40  35 S35G44    29.97F
PIERRE         PTSUNNY   69  40  34 SE17G25   29.79F
MOBRIDGE       MOSUNNY   61  37  41 SE24      29.81F
RAPID CITY     PTSUNNY   76  36  23 S24G32    29.69F
$$

  *****  SOME WEATHER IN NEARBY STATES *****

CITY           SKY/WX    TMP DP  RH WIND       PRES   REMARKS
GLASGOW MT     CLOUDY    49  32  52 SE6       29.65R
GREAT FALLS MT PTSUNNY   53  24  32 W30G39    29.68S
CHEYENNE WY    PTSUNNY   70  28  21 SW18G24   29.96F
SCOTTSBLUFF NE CLOUDY    77  32  19 SW15G22   29.85F
OMAHA NE       MOSUNNY   64  34  32 S20       30.19F
DES MOINES IA  MOSUNNY   61  33  35 SE13G18   30.29F
DAVENPORT IA   SUNNY     58  28  32 CALM      30.33F
CHICAGO IL     MOSUNNY   50  33  52 NE9       30.35S
EAU CLAIRE WI  SUNNY     48  21  34 NE9       30.36F
LA CROSSE WI   SUNNY     51  26  37 W9        30.36S
$$

  *****  SOME NATIONAL WEATHER *****

CITY           SKY/WX    TMP DP  RH WIND       PRES   REMARKS
LA GUARDIA NY  CLOUDY    44  29  55 NE7       30.42F
RALEIGH NC     PTSUNNY   62  39  42 N5        30.33F
ATLANTA GA     LGT RAIN  52  48  86 NE15      30.20F
NEW ORLEANS LA MOSUNNY   73  60  63 NE18G28   30.06F
OKLAHOMA CITY  SUNNY     71  41  33 SE7       30.21F
ALBUQUERQUE NM PTSUNNY   70  26  19 S9        30.13F
SALT LAKE CITY CLOUDY    61  40  45 NW16      29.96R
LOS ANGELES CA PTSUNNY   69  49  48 E5        29.92F
BOISE ID       MOSUNNY   56  34  43 NW10      30.03S
SEATTLE WA     PTSUNNY   53  40  61 S12       30.13S
$$

*** WEATHER ACROSS MANITOBA...SASKATCHEWAN AND ONTARIO ***
                ***ONTARIO***

CITY           SKY/WX    TMP DP  RH WIND       PRES   REMARKS
GERALDTON      MOSUNNY   37  14  38 NW12      30.36R
THUNDER BAY    MOSUNNY   39  25  56 S3        30.40F
SIOUX LOOKOUT  MOSUNNY   39   5  24 W7        30.36F
TORONTO        LGT RAIN  50  43  76 N6        30.24S
BIG TROUT LK   SUNNY     37  10  32 SW10      30.38S
PICKLE LAKE    MOSUNNY   41   5  22 VRB2      30.37S
DRYDEN         SUNNY     39   9  28 VRB8      30.34F
KENORA         CLOUDY    41   7  24 S5        30.32F
$$
                *** MANITOBA***

CITY           SKY/WX    TMP DP  RH WIND       PRES   REMARKS
BRANDON        CLOUDY    43  19  39 SE20G30   30.09F
DAUPHIN        PTSUNNY   37  23  56 SE16G25   30.14F
ISLAND LAKE    SUNNY     39  10  30 E3        30.37S
PILOT MOUND      N/A     43  21  42 SE26G36     N/A
THE PAS        PTSUNNY   37  10  32 SE17G24   30.19F
THOMPSON       MOSUNNY   41  10  28 S6        30.31F
WINNIPEG       PTSUNNY   46  14  27 SE20G30   30.23F
LYNN LAKE      SUNNY     37   1  22 SE13G21   30.22F
CHURCHILL      SUNNY     21  12  68 S7        30.44F WCI  13
GILLAM         SUNNY     37  19  48 NE10      30.38F
$$
                ***SASKATCHEWAN***

CITY           SKY/WX    TMP DP  RH WIND       PRES   REMARKS
ESTEVAN        CLOUDY    39  27  60 SE20G30   29.84F
KINDERSLEY     CLOUDY    43  41  93 SE17      29.58F
LLOYDMINSTER   CLOUDY    32  28  86 E16G22    29.68R WCI  21
PRINCE ALBERT  LGT SNOW  32  30  93 E20G28    29.89F VSB 3/4 WCI  20
REGINA         LGT RAIN  34  30  86 SE29G38   29.78F WCI  20
YORKTON        LGT SNOW  30  28  93 SE23G32   29.99F WCI  17
N. BATTLEFORD  CLOUDY    34  32  93 SE26G33   29.71S WCI  21
LA RONGE       CLOUDY    39  18  41 E16G28    29.99F
SASKATOON      LGT SNOW  32  30  93 SE24G35   29.76S WCI  19
SWIFT CURRENT  CLOUDY    41  39  93 SE17      29.59F
$$
NOTE: THESE ARE AUTOMATED STATIONS WITH LIMITED QUALITY CONTROL
      "FAIR" INDICATES FEW OR NO CLOUDS BELOW 12,000 FEET WITH NO
      SIGNIFICANT WEATHER AND/OR OBSTRUCTIONS TO VISIBILITY.
      SKY/WX - SKY CONDITION AND SIGNIFICANT WEATHER.
      TMP - AIR TEMPERATURE.    DP   - DEWPOINT TEMPERATURE.
      RH  - RELATIVE HUMIDITY.  PRES - PRESSURE.
      HX  - HEAT INDEX.         WCI  - WIND CHILL INDEX.
$



USA.gov is the U.S. government's official web portal to all federal, state and local government web resources and services.